EHI
0 0 0 0 0 0 0 0 0 0 0 0 0 0 0 0 0 0 0 0 0 0 0 0 0 0 0 0 0 0 0 0 0 0 0 0 0 0 0 0 0 0 0 0
0 0 0 0 0 0 0 0 0 0 0 0 0 0 0 0 0 0 0 0 0 0 0 0 0 0 0 0 0 0 0 0 0 0 0 0 0 0 0 0 0 0 0 0
0 0 0 0 0 0 0 0 0 0 0 0 0 0 0 0 0 0 0 0 0 0 0 0 0 0 0 0 0 0 0 0 0 0 0 0 0 0 0 0 0 0 0 0
0 0 0 0 0 0 0 0 0 0 0 0 0 0 0 0 0 0 0 0 0 0 0 0 0 0 0 0 0 0 0 0 0 0 0 0 0 0 0 0 0 0 0 0
0 0 0 0 0 0 0 0 0 0 0 0 0 0 0 0 0 0 0 0 0 0 0 0 0 0 0 0 0 0 0 0 0 0 0 0 0 0 0 0 0 0 0 0
0 0 0 0 0 0 0 0 0 0 0 0 0 0 0 0 0 0 0 0 0 0 0 0 0 0 0 0 0 0 0 0 0 0 0 0 0 0 0 0 0 0 0 0
0 0 0 0 0 0 0 0 0 0 0 0 0 0 0 0 0 0 0 0 0 0 0 0 0 0 0 0 0 0 0 0 0 0 0 0 0 0 0 0 0 0 0 0
0 0 0 0 0 0 0 0 0 0 0 0 0 0 0 0 0 0 0 0 0 0 0 0 0 0 0 0 0 0 0 0 0 0 0 0 0 0 0 0 0 0 0 0
0 0 0 0 0 0 0 0 0 0 0 0 0 0 0 0 0 0 0 0 0 0 0 0 0 0 0 0 0 0 0 0 0 0 0 0 0 0 0 0 0 0 0 0
0 0 0 0 0 0 0 0 0 0 0 0 0 0 0 0 0 0 0 0 0 0 0 0 0 0 0 0 0 0 0 0 0 0 0 0 0 0 0 0 0 0 0 0
0 0 0 0 0 0 0 0 0 0 0 0 0 0 0 0 0 0 0 0 0 0 0 0 0 0 0 0 0 0 0 0 0 0 0 0 0 0 0 0 0 0 0 0
0 0 0 0 0 0 0 0 0 0 0 0 0 0 0 0 0 0 0 0 0 0 0 0 0 0 0 0 0 0 0 0 0 0 0 0 0 0 0 0 0 0 0 0
0 0 0 0 0 0 0 0 0 0 0 0 0 0 0 0 0 0 0 0 0 0 0 0 0 0 0 0 0 0 0 0 0 0 0 0 0 0 0 0 0 0 0 0
0 0 0 0 0 0 0 0 0 0 0 0 0 0 0 0 0 0 0 0 0 0 0 0 0 0 0 0 0 0 0 0 0 0 0 0 0 0 0 0 0 0 0 0
0 0 0 0 0 0 0 0 0 0 0 0 0 0 0 0 0 0 0 0 0 0 0 0 0 0 0 0 0 0 0 0 0 0 0 0 0 0 0 0 0 0 0 0
0 0 0 0 0 0 0 0 0 0 0 0 0 0 0 0 0 0 0 0 0 0 0 0 0 0 0 0 0 0 0 0 0 0 0 0 0 0 0 0 0 0 0 0
0 0 0 0 0 0 0 0 0 0 0 0 0 0 0 0 0 0 0 0 0 0 0 0 0 0 0 0 0 0 0 0 0 0 0 0 0 0 0 0 0 0 0 0
0 0 0 0 0 0 0 0 0 0 0 0 0 0 0 0 0 0 0 0 0 0 0 0 0 0 0 0 0 0 0 0 0 0 0 0 0 0 0 0 0 0 0 0
0 0 0 0 0 0 0 0 0 0 0 0 0 0 0 0 0 0 0 0 0 0 0 0 0 0 0 0 0 0 0 0 0 0 0 0 0 0 0 0 0 0 0 0
0 0 0 0 0 0 0 0 0 0 0 0 0 0 0 0 0 0 0 0 0 0 0 0 0 0 0 0 0 0 0 0 0 0 0 0 0 0 0 0 0 0 0 0
0 0 0 0 0 0 0 0 0 0 0 0 0 0 0 0 0 0 0 0 0 0 0 0 0 0 0 0 0 0 0 0 0 0 0 0 0 0 0 0 0 0 0 0
0 0 0 0 0 0 0 0 0 0 0 0 0 0 0 0 0 0 0 0 0 0 0 0 0 0 0 0 0 0 0 0 0 0 0 0 0 0 0 0 0 0 0 0
0 0 0 0 0 0 0 0 0 0 0 0 0 0 0 0 0 0 0 0 0 0 0 0 0 0 0 0 0 0 0 0 0 0 0 0 0 0 0 0 0 0 0 0
0 0 0 0 0 0 0 0 0 0 0 0 0 0 0 0 0 0 0 0 0 0 0 0 0 0 0 0 0 0 0 0 0 0 0 0 0 0 0 0 0 0 0 0
0 0 0 0 0 0 0 0 0 0 0 0 0 0 0 0 0 0 0 0 0 0 0 0 0 0 0 0 0 0 0 0 0 0 0 0 0 0 0 0 0 0 0 0
0 0 0 0 0 0 0 0 0 0 0 0 0 0 0 0 0 0 0 0 0 0 0 0 0 0 0 0 0 0 0 0 0 0 0 0 0 0 0 0 0 0 0 0
Wind_Speed
1 0 0 1 1 3 4 4 4 2 2 1 4 4 3 3 2 2 2 3 3 4 4 4 4 5 5 5 6 6 5 5 4 3 2 2 2 2 2 2 3 3 3 3
1 1 2 3 3 3 4 4 4 1 1 2 4 6 4 4 4 3 3 3 3 3 4 4 4 5 5 5 5 5 5 4 4 3 2 2 2 1 1 2 2 2 2 2
1 2 2 2 2 3 4 3 3 3 4 4 4 6 5 5 5 4 3 3 3 4 4 4 4 5 5 5 5 5 4 4 3 3 2 2 2 2 2 2 2 3 3 2
1 1 2 1 2 3 3 3 3 4 4 4 3 5 4 7 6 5 4 3 3 3 3 4 4 5 5 4 4 4 4 4 3 3 3 3 2 2 3 2 2 3 3 3
1 1 2 1 2 3 2 3 5 6 6 6 5 5 4 7 6 5 5 4 3 3 3 4 4 4 4 4 4 4 4 4 4 3 3 2 3 3 2 3 3 3 2 2
1 1 2 2 2 2 2 4 6 5 3 5 6 6 4 3 6 6 6 4 3 3 3 4 4 4 4 5 5 4 5 5 5 4 3 3 3 4 4 4 3 3 2 2
2 3 2 0 1 1 2 2 2 2 3 6 1 3 3 3 6 7 6 4 3 3 3 3 4 4 4 5 5 5 5 6 5 5 4 4 4 4 4 4 3 3 2 2
2 3 4 1 1 1 2 2 2 3 4 3 2 5 2 6 7 6 5 4 3 3 3 3 3 3 4 4 5 5 6 6 6 5 5 4 4 3 3 3 3 3 3 3
2 1 2 1 1 2 2 2 2 2 5 5 6 2 1 4 5 4 3 3 2 2 3 3 3 3 4 4 5 5 5 6 6 6 5 5 4 4 4 4 4 3 3 3
3 2 2 2 2 3 3 2 1 2 3 6 6 4 4 6 4 3 2 2 2 3 3 4 4 4 4 4 4 4 5 5 5 6 5 6 5 5 5 4 4 4 4 4
2 2 2 2 5 4 3 2 3 3 4 3 5 3 2 5 5 3 2 2 2 3 3 3 3 4 4 4 4 4 5 5 5 5 6 6 5 5 5 4 5 5 4 4
0 1 3 3 0 2 2 3 3 3 5 4 4 5 3 5 4 3 2 1 2 2 3 3 4 4 5 5 5 4 5 5 5 5 5 6 6 5 5 5 5 5 5 4
1 1 2 2 1 1 2 3 3 2 2 4 5 5 1 3 3 2 2 2 2 2 3 4 4 4 4 5 5 5 5 5 5 5 5 6 6 6 5 5 6 5 5 5
1 3 5 5 2 1 4 5 5 4 4 6 8 7 3 1 1 1 1 1 2 3 3 4 4 4 5 5 5 5 6 6 6 6 6 6 6 6 6 5 5 6 5 5
1 4 5 7 6 5 7 7 7 9 8 8 7 7 4 1 1 1 1 2 3 3 4 5 5 5 5 5 6 6 6 6 6 6 6 6 6 6 5 6 5 5 5 6
2 3 3 6 6 6 9 10 9 9 9 10 10 9 2 1 1 1 2 2 3 4 4 5 6 6 6 6 7 7 7 6 6 6 6 7 6 6 6 6 6 6 5 5
3 2 2 4 2 4 9 8 8 6 5 5 8 6 1 2 2 2 2 3 3 3 4 5 6 6 6 6 6 7 7 7 6 7 7 7 6 6 6 6 6 6 6 5
3 2 2 3 3 8 6 1 1 3 4 4 3 2 2 2 2 2 2 2 3 4 5 5 5 6 6 6 6 6 6 6 7 7 7 7 6 6 6 6 6 6 5 5
2 3 3 2 4 8 3 1 1 1 4 1 2 2 2 3 4 3 1 3 4 4 5 5 5 6 6 7 7 6 6 6 6 7 7 7 7 7 7 6 6 6 5 6
1 2 3 3 4 7 2 2 2 1 3 1 1 1 2 3 3 4 3 4 5 5 4 5 5 6 6 6 6 6 6 6 7 7 7 7 7 7 7 7 6 6 5 6
3 4 5 6 6 7 0 1 2 1 4 2 2 2 2 2 3 4 5 5 5 5 5 5 5 6 6 6 6 6 7 7 7 7 7 7 7 7 7 6 5 6 6 5
6 5 6 5 6 7 2 2 2 2 1 2 2 3 3 4 4 5 5 6 5 6 6 6 6 6 6 5 5 7 7 7 6 7 7 7 7 7 7 6 6 5 5 5
5 5 4 5 6 1 2 2 1 2 1 2 2 3 3 4 5 6 6 6 6 6 6 6 6 6 6 5 5 7 7 7 7 7 7 7 7 6 6 5 5 5 4 4
3 1 1 3 3 1 2 1 1 1 1 2 2 2 3 4 5 6 6 6 6 6 6 6 6 6 7 6 6 6 7 7 7 7 7 7 6 6 6 5 5 4 4 4
2 2 2 4 3 1 1 1 0 1 1 1 2 3 3 5 5 6 5 6 6 6 5 5 5 6 7 7 7 7 6 6 7 7 7 7 6 6 5 5 4 5 4 5
2 3 4 4 2 2 2 0 1 1 2 2 3 4 3 4 5 6 5 5 5 6 5 6 6 7 7 7 7 7 6 6 7 7 7 5 5 5 5 5 5 7 8 10
Wind_Direction
161 243 269 330 289 310 315 303 301 334 59 315 263 257 225 198 182 155 124 96 84 75 70 56 39 30 30 30 29 20 15 10 8 6 2 359 351 343 343 348 353 349 343 338
164 236 349 342 343 309 290 285 298 335 42 301 275 267 235 190 175 143 121 101 84 68 54 48 39 35 29 22 18 14 12 6 1 356 343 337 327 316 333 340 337 336 329 329
229 55 359 327 327 301 291 298 312 308 308 256 264 267 210 160 140 127 112 94 78 69 50 38 32 32 25 16 8 3 1 359 356 354 350 349 352 352 353 339 327 325 326 328
62 39 322 301 322 320 287 4 327 295 287 261 210 279 215 170 160 153 139 112 80 66 53 37 26 22 17 6 1 359 355 355 355 358 357 350 332 316 309 307 303 308 318 325
82 52 324 285 355 331 340 336 296 274 266 278 235 242 249 161 168 166 147 121 90 68 57 40 27 18 12 6 360 356 354 353 354 354 347 332 317 307 310 305 295 300 309 318
136 75 4 7 10 319 315 289 270 259 248 260 230 215 250 179 169 147 138 124 105 73 55 38 23 17 8 2 358 354 353 349 351 348 339 328 314 311 312 308 303 296 295 295
201 176 144 297 265 240 279 303 309 288 232 244 215 224 241 94 99 117 121 116 99 68 46 25 11 6 359 354 352 350 352 346 345 344 339 330 316 305 295 296 296 300 295 293
225 221 161 168 307 280 244 264 236 254 261 293 278 239 166 101 92 90 95 96 81 57 33 19 4 354 347 349 352 350 348 343 344 341 334 328 321 306 293 293 295 284 282 283
281 207 92 90 345 313 257 233 334 298 289 278 249 197 121 120 112 108 100 83 66 56 28 3 357 354 349 347 349 346 343 341 340 336 331 325 324 317 305 297 291 285 285 286
319 269 194 154 215 236 272 302 205 219 255 265 265 235 205 171 168 150 112 69 37 29 14 1 354 349 342 342 341 342 341 338 335 337 333 328 325 319 313 307 301 297 295 291
300 249 215 211 214 216 202 229 234 251 253 254 278 278 35 148 150 146 127 76 33 16 360 347 340 342 341 342 342 341 338 336 334 333 328 326 323 322 321 315 311 307 306 299
305 275 251 235 247 11 259 230 197 220 256 246 268 275 63 87 102 110 101 54 29 15 357 346 340 346 346 340 335 333 332 332 329 327 326 322 320 319 317 316 316 316 312 309
7 211 274 272 213 172 258 251 249 262 278 246 246 258 88 72 69 75 68 34 13 1 350 341 340 341 334 330 331 334 331 328 327 326 323 321 321 319 315 313 314 315 311 308
300 240 220 241 283 257 258 251 235 225 230 248 242 257 263 269 332 9 19 13 359 343 337 336 334 331 330 330 333 332 329 329 324 321 320 317 315 311 310 311 311 309 306 302
240 253 261 275 286 279 268 258 235 230 236 247 266 277 281 283 277 314 333 347 341 329 332 338 335 331 333 334 331 327 327 326 323 320 318 314 311 307 305 308 307 305 302 299
218 262 294 278 262 266 269 258 243 240 244 255 273 281 304 350 354 338 334 332 318 318 329 334 333 331 329 329 327 324 322 321 319 313 310 311 311 312 310 309 306 304 301 297
201 215 255 270 282 301 264 240 223 227 229 238 255 265 341 339 345 328 310 303 302 322 333 330 325 323 321 322 323 318 315 319 318 313 313 314 314 311 309 309 308 304 302 300
197 198 224 275 307 249 245 56 159 224 249 244 255 315 356 349 341 327 320 332 339 337 328 322 320 320 320 320 317 313 315 318 317 315 316 319 318 312 308 306 304 303 301 299
203 187 219 235 258 269 257 136 109 205 275 232 232 291 343 13 348 318 5 11 344 330 320 314 316 314 314 314 315 315 315 315 316 316 317 318 317 312 308 304 300 300 300 298
222 178 211 225 244 256 256 100 45 52 272 7 44 310 342 5 311 293 344 343 332 326 319 316 316 314 311 312 316 314 312 313 313 313 312 313 311 306 301 298 298 298 293 291
177 201 217 231 243 260 190 130 94 188 252 7 26 351 331 289 267 303 330 325 319 318 318 320 316 309 309 316 322 314 308 307 309 311 310 308 306 304 300 297 297 296 295 294
185 193 202 204 228 249 123 129 178 220 32 26 10 1 337 318 318 317 317 316 320 319 318 318 313 309 314 319 319 311 307 306 308 308 306 305 305 304 306 303 302 299 298 296
203 196 194 200 218 224 133 138 119 64 32 0 355 348 333 314 309 311 313 315 315 315 314 314 310 310 313 316 314 308 308 313 311 307 305 304 304 301 301 299 299 299 296 294
217 201 226 262 254 232 172 117 57 39 343 341 343 333 325 307 308 311 312 314 315 315 314 316 317 313 312 316 315 310 312 314 313 309 305 303 302 302 301 299 296 296 295 293
219 180 229 251 260 308 229 188 52 344 341 334 325 323 316 310 306 307 307 309 309 312 314 317 313 309 310 316 315 316 318 318 312 309 307 306 303 300 297 296 293 295 283 288
203 194 202 231 216 208 242 153 34 338 325 313 308 311 315 310 303 307 306 308 310 309 313 313 311 310 313 315 314 316 318 316 312 310 309 307 305 302 302 301 304 303 303 307